TimeEDT,TemperatureF,Dew PointF,Humidity,Sea Level PressureIn,VisibilityMPH,Wind Direction,Wind SpeedMPH,Gust SpeedMPH,PrecipitationIn,Events,Conditions,WindDirDegrees,DateUTC
12:53 AM,43.0,23.0,45,30.23,10.0,Calm,Calm,-,N/A,,Clear,0,2013-03-11 04:53:00
1:53 AM,42.1,25.0,51,30.21,10.0,Calm,Calm,-,N/A,,Clear,0,2013-03-11 05:53:00
2:53 AM,42.1,30.0,62,30.18,10.0,ESE,5.8,-,N/A,,Clear,120,2013-03-11 06:53:00
3:53 AM,43.0,32.0,65,30.18,10.0,Calm,Calm,-,N/A,,Partly Cloudy,0,2013-03-11 07:53:00
4:53 AM,43.0,37.0,80,30.15,10.0,ESE,3.5,-,N/A,,Clear,120,2013-03-11 08:53:00
5:53 AM,43.0,37.9,82,30.14,10.0,ESE,4.6,-,N/A,,Clear,110,2013-03-11 09:53:00
6:53 AM,45.0,41.0,86,30.14,10.0,Calm,Calm,-,N/A,,Clear,0,2013-03-11 10:53:00
7:53 AM,46.9,44.1,90,30.14,8.0,ESE,3.5,-,N/A,,Overcast,120,2013-03-11 11:53:00
8:53 AM,50.0,46.0,86,30.13,10.0,SE,4.6,-,N/A,,Mostly Cloudy,130,2013-03-11 12:53:00
9:53 AM,57.0,48.9,74,30.13,10.0,SE,6.9,-,N/A,,Mostly Cloudy,140,2013-03-11 13:53:00
10:53 AM,63.0,50.0,63,30.12,10.0,SE,5.8,-,N/A,,Overcast,140,2013-03-11 14:53:00
11:53 AM,68.0,51.1,55,30.11,10.0,South,10.4,-,N/A,,Overcast,180,2013-03-11 15:53:00
12:53 PM,68.0,52.0,56,30.09,10.0,SE,15.0,19.6,N/A,,Overcast,140,2013-03-11 16:53:00
1:53 PM,69.1,52.0,54,30.06,10.0,South,11.5,-,N/A,,Overcast,170,2013-03-11 17:53:00
2:53 PM,71.1,51.1,49,30.02,10.0,SSW,11.5,-,N/A,,Overcast,200,2013-03-11 18:53:00
3:53 PM,69.1,52.0,54,30.00,10.0,SSE,12.7,20.7,N/A,,Overcast,160,2013-03-11 19:53:00
4:53 PM,71.1,50.0,47,29.98,10.0,South,15.0,19.6,N/A,,Overcast,180,2013-03-11 20:53:00
5:53 PM,69.1,50.0,51,29.96,10.0,SSE,16.1,21.9,N/A,,Overcast,160,2013-03-11 21:53:00
6:53 PM,66.0,52.0,60,29.95,10.0,SSE,16.1,-,N/A,,Scattered Clouds,150,2013-03-11 22:53:00
7:53 PM,64.0,53.1,67,29.96,10.0,SSE,9.2,-,N/A,,Partly Cloudy,160,2013-03-11 23:53:00
8:53 PM,64.0,52.0,65,29.95,10.0,SSE,9.2,-,N/A,,Clear,150,2013-03-12 00:53:00
9:53 PM,63.0,53.1,70,29.94,10.0,SSE,11.5,-,N/A,,Scattered Clouds,160,2013-03-12 01:53:00
10:53 PM,63.0,53.1,70,29.94,10.0,South,6.9,-,N/A,,Clear,170,2013-03-12 02:53:00
11:53 PM,62.1,54.0,75,29.93,10.0,SSE,5.8,-,N/A,,Mostly Cloudy,160,2013-03-12 03:53:00